CORDOBA_AIRPORT current weather conditions

sailwx.info

Wind from 270 at 6 knots

Air temperature 11.0° C
Visibility: greater than 3.2 NM
Dewpoint 10.0° C
Present weather: Light rain.

Last reported at 2019-Nov-18 00:00 UTC.
Time now 2019-Nov-18 01:07 UTC

Location: N 37°51' W 004°50'.
View on Google Maps.

See reports from other nearby stations

  
Tides and Currents Weather Stations Pressure Air Temp Water Temp Dewpoint Dewpoint Depression Visibility Wind Speed Wind Dir Waves Ship Positions
date/time (UTC)wind fromknots sea level pressurealtimeterstation pressurevisibilityair tempwater tempwave heightnotes
2019-Nov-18 00:00 270 6 3.211.0 Light rain.
2019-Nov-17 23:30 250 5 1.410.0 Rain. Mist.
2019-Nov-17 23:00 270 4 1.210.0 Light rain. Mist.
2019-Nov-17 22:30 280 2 1.8 9.0 Light rain. Mist.
2019-Nov-17 22:00 1.0 9.0 Rain. Mist.
2019-Nov-17 21:30 1.9 9.0 Light rain. Mist.
2019-Nov-17 21:00 230 2 1.8 9.0 Mist.
2019-Nov-17 20:30 2.5 9.0 Mist.
2019-Nov-17 20:00 2.3 8.0 Light rain. Mist.
2019-Nov-17 19:30 1.9 8.0 Light rain. Mist.
2019-Nov-17 19:00 1.8 8.0 Light rain. Mist.
2019-Nov-17 18:30 2.2 8.0 Light rain. Mist.
2019-Nov-17 18:00 1.6 8.0 Light rain. Mist.
2019-Nov-17 17:30 200 4 3.8 8.0
2019-Nov-17 17:00 210 1 5.4 8.0
2019-Nov-17 16:30 2.2 8.0 Light drizzle. Mist.
2019-Nov-17 16:00 2.2 8.0 Light drizzle. Mist.
2019-Nov-17 15:30 190 2 2.2 8.0 Light drizzle. Mist.
2019-Nov-17 15:00 230 2 1.6 8.0 Light drizzle. Mist.
2019-Nov-17 14:30 250 2 1.6 7.0 Light drizzle. Mist.
2019-Nov-17 14:00 270 2 1.6 7.0 Light drizzle. Mist.
2019-Nov-17 13:30 250 2 1.6 7.0 Mist. Light drizzle.
2019-Nov-17 13:00 270 2 1.6 7.0 Mist. Light drizzle.
2019-Nov-17 12:30 260 2 1.6 7.0 Mist. Light drizzle.
2019-Nov-17 12:00 290 2 1.6 6.0 Mist. Light drizzle.
2019-Nov-17 11:30 1.6 6.0 Mist. Light drizzle.
2019-Nov-17 11:00 290 2 1.6 6.0 Mist.
2019-Nov-17 10:30 1.6 5.0 Mist.
2019-Nov-17 10:00 2.2 5.0 Mist.
2019-Nov-17 09:30 2.2 5.0 Mist.
2019-Nov-17 09:00 5.4 4.0
2019-Nov-17 08:30 090 4 4.9 4.0
2019-Nov-17 08:00 5.4 4.0
2019-Nov-17 07:30 5.4 3.0
2019-Nov-17 07:00 180 0 5.4 3.0
2019-Nov-17 06:30 5.4 2.0
2019-Nov-17 06:00 5.4 2.0
2019-Nov-17 05:30 5.4 1.0
2019-Nov-17 05:00 5.4 1.0
2019-Nov-17 04:30 4.9-0.0
2019-Nov-17 04:00 160 0 5.4 1.0
2019-Nov-17 03:30 5.4-0.0
2019-Nov-17 03:00 1.8 1.0 Mist.
2019-Nov-17 02:30 5.4 2.0
2019-Nov-17 02:00 5.4 2.0
2019-Nov-17 01:30 210 1 5.4 2.0
2019-Nov-17 01:00 200 4 5.4 2.0
2019-Nov-17 00:30 240 0 5.4 2.0
2019-Nov-17 00:00 200 1 5.4 2.0
2019-Nov-16 23:30 5.4 2.0
2019-Nov-16 23:00 250 1 5.4 3.0
2019-Nov-16 22:30 5.4 5.0
2019-Nov-16 22:00 290 2 5.4 3.0
2019-Nov-16 21:30 250 1 5.4 4.0
2019-Nov-16 21:00 5.4 5.0
2019-Nov-16 20:30 5.4 6.0
2019-Nov-16 20:00 250 1 4.9 6.0
2019-Nov-16 19:30 5.4 7.0
2019-Nov-16 19:00 220 4 5.4 7.0
2019-Nov-16 18:30 240 2 5.4 9.0
2019-Nov-16 18:00 270 2 5.410.0
2019-Nov-16 17:30 260 5 5.411.0
2019-Nov-16 17:00 250 6 5.413.0
2019-Nov-16 16:30 230 8 5.413.0
2019-Nov-16 16:00 230 8 5.414.0
2019-Nov-16 15:30 240 7 5.414.0
2019-Nov-16 15:00 240 7 5.414.0
2019-Nov-16 14:30 230 6 5.414.0
2019-Nov-16 14:00 190 5 5.414.0
2019-Nov-16 13:30 250 5 5.413.0
2019-Nov-16 13:00 220 4 5.412.0
2019-Nov-16 12:30 250 4 5.412.0
2019-Nov-16 12:00 260 4 5.411.0
2019-Nov-16 11:30 200 1 5.410.0
2019-Nov-16 11:00 200 2 5.4 9.0
2019-Nov-16 10:30 320 0 5.4 8.0
2019-Nov-16 10:00 100 0 5.4 6.0
2019-Nov-16 09:30 5.4 5.0
2019-Nov-16 09:00 5.4 3.0
2019-Nov-16 08:30 5.4 1.0
2019-Nov-16 08:00 5.4-0.0
2019-Nov-16 07:30 330 1 5.4-1.0
2019-Nov-16 07:00 5.4-1.0
2019-Nov-16 06:30 5.4-2.0
2019-Nov-16 06:00 5.4-2.0
2019-Nov-16 05:30 5.4-1.0
2019-Nov-16 05:00 5.4-1.0
2019-Nov-16 04:30 5.4-1.0
2019-Nov-16 04:00 5.4-0.0
2019-Nov-16 03:30 5.4-0.0
2019-Nov-16 03:00 160 0 5.4-0.0
2019-Nov-16 02:30 260 1 5.4-0.0
2019-Nov-16 02:00 5.4-0.0
2019-Nov-16 01:30 5.4 1.0
2019-Nov-16 01:00 340 0 5.4 2.0